Location: Morisset
(33.1080°S, 151.4871°E)
Time: 08:54:54
(UTC+00:00)

EXPRESS MD2 - Pass Details

Date: 29 October 2020
Orbit: 262 x 3999 km, 49.9° (Epoch: 27 November)

Event Time Altitude Azimuth Distance (km) Brightness Sun altitude
Rises 18:13:31 0° 236° (SW) 3,386 7.0 -9.3°
Reaches altitude 10° 18:16:58 10° 247° (WSW) 1,929 5.7 -8.7°
Maximum altitude 18:20:18 25° 303° (WNW) 884 3.8 -8.0°
Drops below altitude 10° 18:22:32 10° 3° (N) 1,251 5.0 -7.6°
Sets 18:24:16 0° 19° (NNE) 1,938 6.1 -7.2°
